EW4164 Weather Reports


time (UTC)temp
C
wind
direction
speed
KPH
gust
KPH
rain 1hr
cm
rain 24hr
cm
rain mn
cm
humidity
%
barometer
mb
20260906181517 22 360 0.0 1.6 0.00 0.00 0.00 46 1023.2
20260906180517 22 360 0.0 4.8 0.00 0.00 0.00 45 1023.2
20260906175517 23 7 3.2 8.0 0.00 0.00 0.00 44 1023.1
20260906174517 23 5 3.2 8.0 0.00 0.00 0.00 43 1023.1
20260906173536 23 2 4.8 8.0 0.00 0.00 0.00 43 1023.0
20260906172517 24 8 4.8 11.3 0.00 0.00 0.00 42 1022.9
20260906171517 24 8 4.8 11.3 0.00 0.00 0.00 41 1023.0
20260906170517 24 6 4.8 12.9 0.00 0.00 0.00 40 1023.1
20260906165517 25 17 6.4 12.9 0.00 0.00 0.00 40 1023.2
20260906164518 25 1 6.4 12.9 0.00 0.00 0.00 40 1023.3
20260906163537 25 6 4.8 12.9 0.00 0.00 0.00 40 1023.2
20260906162517 25 27 6.4 16.1 0.00 0.00 0.00 39 1023.2
20260906161517 25 11 6.4 14.5 0.00 0.00 0.00 38 1023.4
20260906160517 25 1 4.8 14.5 0.00 0.00 0.00 39 1023.5
20260906155537 25 8 6.4 14.5 0.00 0.00 0.00 38 1023.5
20260906154517 25 5 6.4 12.9 0.00 0.00 0.00 37 1023.6
20260906153517 25 4 6.4 16.1 0.00 0.00 0.00 36 1023.6
20260906152517 25 10 6.4 19.3 0.00 0.00 0.00 36 1023.6
20260906151516 25 8 8.0 17.7 0.00 0.00 0.00 37 1023.7
20260906150537 25 10 8.0 16.1 0.00 0.00 0.00 36 1023.7
20260906145517 25 5 4.8 14.5 0.00 0.00 0.00 36 1023.9
20260906144517 25 5 4.8 12.9 0.00 0.00 0.00 36 1023.9
20260906143517 25 18 4.8 12.9 0.00 0.00 0.00 37 1024.0
20260906142517 25 12 4.8 14.5 0.00 0.00 0.00 38 1024.0
20260906141537 25 42 6.4 14.5 0.00 0.00 0.00 39 1024.2
20260906140517 25 24 4.8 11.3 0.00 0.00 0.00 39 1024.3
20260906135517 24 1 6.4 16.1 0.00 0.00 0.00 41 1024.3
20260906134517 24 7 6.4 12.9 0.00 0.00 0.00 41 1024.4
20260906133517 25 9 4.8 17.7 0.00 0.00 0.00 41 1024.6
20260906132517 24 13 8.0 14.5 0.00 0.00 0.00 41 1024.6
20260906131517 24 5 8.0 16.1 0.00 0.00 0.00 42 1024.7
20260906130517 24 5 6.4 14.5 0.00 0.00 0.00 42 1024.9
20260906125536 24 17 6.4 16.1 0.00 0.00 0.00 42 1024.9
20260906124515 23 2 6.4 20.9 0.00 0.00 0.00 44 1025.0
20260906123517 23 7 8.0 16.1 0.00 0.00 0.00 45 1025.1
20260906122517 23 9 4.8 12.9 0.00 0.00 0.00 46 1025.3
20260906121517 23 25 6.4 19.3 0.00 0.00 0.00 46 1025.4
20260906120517 23 3 8.0 19.3 0.00 0.00 0.00 47 1025.5
20260906115517 23 9 6.4 14.5 0.00 0.00 0.00 48 1025.8
20260906114517 23 9 9.7 20.9 0.00 0.00 0.00 49 1025.9
20260906113517 22 18 6.4 14.5 0.00 0.00 0.00 50 1026.0
20260906112517 22 3 4.8 16.1 0.00 0.00 0.00 50 1026.1
20260906111517 22 3 8.0 17.7 0.00 0.00 0.00 50 1026.2
20260906110517 22 4 4.8 14.5 0.00 0.00 0.00 51 1026.2
20260906105517 22 30 8.0 14.5 0.00 0.00 0.00 52 1026.2
20260906104517 21 8 4.8 14.5 0.00 0.00 0.00 53 1026.3
20260906103517 21 21 4.8 16.1 0.00 0.00 0.00 54 1026.4
20260906102517 21 19 6.4 16.1 0.00 0.00 0.00 55 1026.5
20260906101517 21 6 6.4 16.1 0.00 0.00 0.00 55 1026.7
20260906100537 20 38 4.8 16.1 0.00 0.00 0.00 56 1026.9
20260906095517 20 2 4.8 16.1 0.00 0.00 0.00 57 1027.1
20260906094517 20 8 8.0 16.1 0.00 0.00 0.00 57 1027.1
20260906093517 20 3 8.0 19.3 0.00 0.00 0.00 57 1027.0
20260906092517 20 7 9.7 19.3 0.00 0.00 0.00 58 1026.9
20260906091517 19 358 9.7 19.3 0.00 0.00 0.00 59 1027.1
20260906090517 19 7 9.7 20.9 0.00 0.00 0.00 60 1027.2
20260906085517 19 357 9.7 22.5 0.00 0.00 0.00 60 1027.2
20260906084517 18 1 8.0 20.9 0.00 0.00 0.00 61 1027.4
20260906083517 18 11 8.0 14.5 0.00 0.00 0.00 64 1027.5
20260906082517 18 17 6.4 14.5 0.00 0.00 0.00 65 1027.4
20260906081537 18 8 4.8 16.1 0.00 0.00 0.00 66 1027.6
20260906080517 17 1 8.0 16.1 0.00 0.00 0.00 67 1027.5
20260906075517 17 22 6.4 14.5 0.00 0.00 0.00 67 1027.5
20260906074517 17 5 8.0 17.7 0.00 0.00 0.00 67 1027.5
20260906073517 17 11 4.8 14.5 0.00 0.00 0.00 69 1027.5
20260906072537 17 3 6.4 14.5 0.00 0.00 0.00 69 1027.4
20260906071517 17 2 6.4 12.9 0.00 0.00 0.00 70 1027.3
20260906070557 16 7 6.4 14.5 0.00 0.00 0.00 71 1027.3
20260906065557 16 359 6.4 12.9 0.00 0.00 0.00 72 1027.3
20260906064537 16 4 4.8 8.0 0.00 0.00 0.00 73 1027.3
20260906063517 15 8 3.2 8.0 0.00 0.00 0.00 74 1027.2
20260906062518 15 5 4.8 8.0 0.00 0.00 0.00 76 1027.3
20260906061517 14 20 1.6 4.8 0.00 0.00 0.00 77 1027.4
20260906060516 13 6 3.2 6.4 0.00 0.00 0.00 77 1027.4
20260906055517 13 13 1.6 6.4 0.00 0.00 0.00 77 1027.4
20260906054517 13 32 1.6 4.8 0.00 0.00 0.00 77 1027.4
20260906053537 13 13 3.2 6.4 0.00 0.00 0.00 77 1027.3
20260906052517 13 9 1.6 4.8 0.00 0.00 0.00 77 1027.3
20260906051538 13 8 1.6 4.8 0.00 0.00 0.00 76 1027.1
20260906050517 13 20 1.6 6.4 0.00 0.00 0.00 76 1027.0
20260906045517 14 7 1.6 3.2 0.00 0.00 0.00 75 1027.1
20260906044518 14 6 1.6 4.8 0.00 0.00 0.00 75 1027.2
20260906043517 14 14 1.6 4.8 0.00 0.00 0.00 75 1027.1
20260906042517 14 17 3.2 6.4 0.00 0.00 0.00 75 1027.0
20260906041517 14 11 3.2 6.4 0.00 0.00 0.00 75 1026.9
20260906040517 14 19 1.6 4.8 0.00 0.00 0.00 75 1027.0
20260906035537 14 20 1.6 6.4 0.00 0.00 0.00 74 1027.0
20260906034516 15 7 1.6 8.0 0.00 0.00 0.00 74 1027.2
20260906033517 14 14 3.2 8.0 0.00 0.00 0.00 74 1027.2
20260906032517 14 25 1.6 8.0 0.00 0.00 0.00 75 1027.1
20260906031517 14 20 3.2 8.0 0.00 0.00 0.00 76 1027.1
20260906030517 14 3 1.6 8.0 0.00 0.00 0.00 77 1027.2
20260906025537 13 24 1.6 8.0 0.00 0.00 0.00 79 1027.2
20260906024517 13 13 3.2 8.0 0.00 0.00 0.00 81 1027.1
20260906023517 12 11 1.6 8.0 0.00 0.00 0.00 82 1027.1
20260906022517 12 359 0.0 3.2 0.00 0.00 0.00 82 1027.1
20260906021517 12 316 0.0 3.2 0.00 0.00 0.00 81 1027.2
20260906020538 12 0.0 1.6 0.00 0.00 0.00 80 1027.3
20260906015517 12 253 0.0 1.6 0.00 0.00 0.00 79 1027.2
20260906014538 12 0.0 0.0 0.00 0.00 0.00 79 1027.1
20260906013537 12 230 0.0 3.2 0.00 0.00 0.00 78 1027.1
20260906012518 12 230 0.0 1.6 0.00 0.03 0.00 77 1026.9
20260906011517 12 230 1.6 3.2 0.00 0.05 0.00 77 1027.0
20260906010516 12 234 1.6 3.2 0.00 0.05 0.00 76 1027.0
20260906005517 12 219 0.0 3.2 0.00 0.05 0.00 75 1027.2
20260906004518 12 225 1.6 3.2 0.00 0.05 0.00 75 1027.2
20260906003517 12 229 0.0 1.6 0.00 0.05 0.00 74 1027.2
20260906002517 12 230 1.6 4.8 0.00 0.05 0.00 73 1027.1
20260906001518 13 222 1.6 4.8 0.00 0.05 0.00 72 1027.1
20260906000517 13 223 0.0 4.8 0.00 0.05 0.00 71 1027.0
20260905235517 13 230 1.6 4.8 0.00 0.05 0.00 71 1026.9
20260905234518 13 218 1.6 4.8 0.00 0.05 0.00 70 1026.9
20260905233517 13 223 1.6 3.2 0.00 0.05 0.00 70 1026.9
20260905232517 13 180 0.0 3.2 0.00 0.05 0.00 69 1026.8
20260905231518 13 220 1.6 4.8 0.00 0.05 0.00 68 1026.5
20260905230558 13 225 0.0 3.2 0.00 0.05 0.00 68 1026.5
20260905225517 14 225 1.6 4.8 0.00 0.05 0.00 67 1026.4
20260905224517 14 218 1.6 3.2 0.00 0.05 0.00 66 1026.5
20260905223517 14 208 1.6 4.8 0.00 0.05 0.00 65 1026.4
20260905222518 15 232 1.6 6.4 0.00 0.05 0.00 64 1026.4
20260905221558 15 223 3.2 6.4 0.00 0.05 0.00 63 1026.3
20260905220517 15 226 1.6 4.8 0.00 0.05 0.00 63 1026.1
20260905215518 15 229 3.2 6.4 0.00 0.05 0.05 62 1026.0
20260905214527 15 239 1.6 8.0 0.00 0.05 0.05 60 1026.0
20260905213517 15 229 4.8 9.7 0.00 0.05 0.05 60 1025.9
20260905212518 15 230 4.8 8.0 0.00 0.05 0.05 60 1026.0
20260905211537 15 225 3.2 6.4 0.00 0.05 0.05 60 1025.9
20260905210517 16 222 4.8 6.4 0.00 0.05 0.05 59 1025.8
20260905205537 16 241 0.0 6.4 0.00 0.05 0.05 58 1025.7
20260905204517 16 225 4.8 9.7 0.00 0.05 0.05 57 1025.5
20260905203527 16 227 4.8 9.7 0.00 0.05 0.05 57 1025.5
20260905202537 16 228 4.8 11.3 0.00 0.05 0.05 56 1025.4
20260905201518 17 226 4.8 9.7 0.00 0.05 0.05 55 1025.4
20260905200517 17 226 4.8 9.7 0.00 0.05 0.05 55 1025.3
20260905195518 17 228 4.8 11.3 0.00 0.05 0.05 55 1025.3
20260905194517 17 224 3.2 4.8 0.00 0.05 0.05 55 1025.2
20260905193517 17 223 3.2 6.4 0.00 0.05 0.05 54 1025.1
20260905192538 17 225 3.2 4.8 0.00 0.05 0.05 53 1025.1
20260905191517 17 220 3.2 4.8 0.00 0.05 0.05 52 1025.0
20260905190517 18 215 1.6 4.8 0.00 0.05 0.05 51 1024.9
20260905185538 18 224 1.6 4.8 0.00 0.05 0.05 51 1024.9
20260905184517 18 232 1.6 4.8 0.00 0.05 0.05 50 1024.8
20260905183518 20 223 1.6 3.2 0.00 0.05 0.05 47 1024.7
20260905182517 20 223 1.6 3.2 0.00 0.05 0.05 45 1024.5